SCP
0 0 0 0 0 0 0 0 0 0 0 0 0 0 0 0 0 0 0 0 0 0 0 0 0 0 0 0 0 0 0 0 0 0 0 0 0 0
0 0 0 0 0 0 0 0 0 0 0 0 0 0 0 0 0 0 0 0 0 0 0 0 0 0 0 0 0 0 0 0 0 0 0 0 0 0
0 0 0 0 0 0 0 0 0 0 0 0 0 0 0 0 0 0 0 0 0 0 0 0 0 0 0 0 0 0 0 0 0 0 0 0 0 0
0 0 0 0 0 0 0 0 0 0 0 0 0 0 0 0 0 0 0 0 0 0 0 0 0 0 0 0 0 0 0 0 0 0 0 0 0 0
0 0 0 0 0 0 0 0 0 0 0 0 0 0 0 0 0 0 0 0 0 0 0 0 0 0 0 0 0 0 0 0 0 0 0 0 0 0
0 0 0 0 0 0 0 0 0 0 0 0 0 0 0 0 0 0 0 0 0 0 0 0 0 0 0 0 0 0 0 0 0 0 0 0 0 0
0 0 0 0 0 0 0 0 0 0 0 0 0 0 0 0 0 0 0 0 0 0 0 0 0 0 0 0 0 0 0 0 0 0 0 0 0 0
0 0 0 0 0 0 0 0 0 0 0 0 0 0 0 0 0 0 0 0 0 0 0 0 0 0 0 0 0 0 0 0 0 0 0 0 0 0
0 0 0 0 0 0 0 0 0 0 0 0 0 0 0 0 0 0 0 0 0 0 0 0 0 0 0 0 0 0 0 0 0 0 0 0 0 0
0 0 0 0 0 0 0 0 0 0 0 0 0 0 0 0 0 0 0 0 0 0 0 0 0 0 0 0 0 0 0 0 0 0 0 0 0 0
0 0 0 0 0 0 0 0 0 0 0 0 0 0 0 0 0 0 0 0 0 0 0 0 0 0 0 0 0 0 0 0 0 0 0 0 0 0
0 0 0 0 0 0 0 0 0 0 0 0 0 0 0 0 0 0 0 0 0 0 0 0 0 0 0 0 0 0 0 0 0 0 0 0 0 0
0 0 0 0 0 0 0 0 0 0 0 0 0 0 0 0 0 0 0 0 0 0 0 0 0 0 0 0 0 0 0 0 0 0 0 0 0 0
0 0 0 0 0 0 0 0 0 0 0 0 0 0 0 0 0 0 0 0 0 0 0 0 0 0 0 0 0 0 0 0 0 0 0 0 0 0
0 0 0 0 0 0 0 0 0 0 0 0 0 0 0 0 0 0 0 0 0 0 0 0 0 0 0 0 0 0 0 0 0 0 0 0 0 0
0 0 0 0 0 0 0 0 0 0 0 0 0 0 0 0 0 0 0 0 0 0 0 0 0 0 0 0 0 0 0 0 0 0 0 0 0 0
0 0 0 0 0 0 0 0 0 0 0 0 0 0 0 0 0 0 0 0 0 0 0 0 0 0 0 0 0 0 0 0 0 0 0 0 0 0
0 0 0 0 0 0 0 0 0 0 0 0 0 0 0 0 0 0 0 0 0 0 0 0 0 0 0 0 0 0 0 0 0 0 0 0 0 0
0 0 0 0 0 0 0 0 0 0 0 0 0 0 0 0 0 0 0 0 0 0 0 0 0 0 0 0 0 0 0 0 0 0 0 0 0 0
0 0 0 0 0 0 0 0 0 0 0 0 0 0 0 0 0 0 0 0 0 0 0 0 0 0 0 0 0 0 0 0 0 0 0 0 0 0
0 0 0 0 0 0 0 0 0 0 0 0 0 0 0 0 0 0 0 0 0 0 0 0 0 0 0 0 0 0 0 0 0 0 0 0 0 0
0 0 0 0 0 0 0 0 0 0 0 0 0 0 0 0 0 0 0 0 0 0 0 0 0 0 0 0 0 0 0 0 0 0 0 0 0 0
0 0 0 0 0 0 0 0 0 0 0 0 0 0 0 0 0 0 0 0 0 0 0 0 0 0 0 0 0 0 0 0 0 0 0 0 0 0
Wind_Speed
1 1 1 1 2 2 3 4 4 3 1 1 1 1 1 2 3 3 4 7 9 9 9 10 11 10 10 10 10 9 9 9 9 9 9 8 8 7
1 1 1 1 1 2 3 2 2 3 2 1 1 1 1 2 4 3 4 7 8 8 9 9 9 10 10 10 10 11 11 11 11 10 10 10 9 9
1 1 1 1 2 2 2 2 2 2 3 1 1 1 2 2 2 2 3 3 4 7 8 8 8 8 9 9 10 10 10 10 10 10 9 10 10 10
1 2 1 1 2 2 2 3 2 2 4 3 2 2 2 2 2 2 2 2 2 5 6 6 7 7 7 8 8 8 8 8 9 9 9 9 9 9
2 2 1 2 2 1 2 2 2 2 2 4 2 1 1 2 2 2 2 1 1 2 4 4 4 5 5 6 6 6 6 6 6 7 7 7 7 7
2 2 2 2 2 3 2 3 3 3 4 4 3 2 2 2 2 1 1 1 1 1 2 2 3 3 3 4 4 5 4 4 4 5 5 5 5 5
2 2 1 2 2 3 3 4 4 4 4 3 3 2 2 2 2 2 2 0 0 0 0 1 0 0 1 1 3 3 3 3 3 4 3 3 4 4
2 1 1 2 2 3 4 5 6 5 5 4 3 3 3 3 3 3 2 1 1 1 1 0 0 1 1 1 2 3 3 3 3 3 3 3 2 2
2 1 1 1 2 2 3 4 3 4 5 5 5 5 4 5 5 4 3 3 2 2 2 1 1 1 1 2 4 4 4 4 4 3 3 2 2 2
1 1 2 1 1 2 3 3 2 1 2 3 4 4 3 4 5 4 4 2 1 1 2 1 1 2 2 2 3 5 5 5 4 4 4 3 3 3
1 1 2 1 1 3 3 3 1 0 0 2 2 2 2 4 4 4 3 3 1 2 2 2 1 1 1 2 3 5 6 6 5 5 5 4 4 4
1 0 1 2 2 3 3 3 2 1 1 1 1 1 1 3 5 4 4 3 2 2 3 3 2 1 1 1 2 2 3 5 6 6 6 5 5 4
2 1 1 2 3 3 3 3 4 3 2 2 1 1 1 1 2 2 3 3 3 2 3 3 2 2 2 1 1 2 2 2 3 4 5 6 6 6
3 2 2 3 3 3 3 3 4 3 2 2 1 1 1 2 2 2 3 3 3 3 3 4 3 3 3 2 2 2 2 2 3 3 3 3 5 6
2 3 3 3 3 2 3 3 3 3 2 2 3 3 2 2 2 1 2 2 1 2 3 4 4 3 3 3 3 2 2 2 3 3 3 3 3 3
2 2 2 2 1 1 1 2 2 2 3 3 3 2 1 1 2 2 2 2 2 2 2 3 3 4 3 3 3 3 3 2 2 3 3 3 3 4
3 1 1 1 1 1 1 1 2 2 3 2 2 2 2 2 2 2 2 2 3 3 2 1 2 2 3 3 3 4 3 3 3 3 3 3 4 4
4 2 3 3 3 3 3 2 2 3 3 3 3 3 3 3 2 2 2 3 4 4 3 2 2 1 1 3 5 5 4 3 3 3 3 4 4 4
4 3 4 4 4 4 4 4 4 4 3 3 4 3 3 3 3 3 3 3 4 4 4 3 3 3 4 5 4 6 5 3 2 3 3 4 4 4
4 4 5 4 4 4 4 4 4 3 3 3 4 4 4 4 4 4 4 5 5 5 4 3 4 5 6 5 4 3 7 5 4 4 3 3 3 3
5 5 5 5 4 4 4 4 4 4 4 4 4 5 4 5 5 5 5 6 6 5 5 5 5 6 4 2 3 3 3 7 6 4 3 3 3 2
5 5 5 5 5 5 4 4 4 4 4 4 5 5 5 5 6 6 5 5 5 5 6 5 3 3 4 5 5 5 3 2 5 7 7 6 4 4
6 6 5 5 5 5 5 5 6 5 5 5 5 5 5 5 5 5 5 5 5 5 5 4 3 3 4 5 5 4 4 3 2 3 4 6 8 8
Wind_Direction
135 136 138 141 148 149 149 156 153 164 186 178 136 81 83 76 60 55 57 65 66 66 68 71 71 71 69 68 67 70 77 74 72 73 73 73 74 75
101 108 108 122 126 140 150 154 156 154 158 158 164 146 121 103 78 63 64 69 68 69 72 73 73 73 72 72 71 72 76 76 74 75 75 75 74 74
83 107 111 124 131 140 141 142 140 137 143 139 122 126 119 110 87 78 74 67 68 72 74 75 75 75 74 76 76 76 76 77 78 78 77 76 76 75
100 101 96 109 114 130 141 149 150 147 146 151 142 137 130 135 111 94 79 78 75 78 80 82 82 79 77 79 81 78 76 76 76 75 75 76 75 74
114 114 111 121 126 135 139 145 146 136 131 144 146 136 130 133 113 89 79 56 84 91 89 88 88 88 88 89 92 90 88 84 80 79 78 76 75 74
100 111 120 138 155 155 146 144 135 127 125 134 140 141 138 137 140 138 110 54 64 69 70 85 90 96 98 104 108 106 103 101 96 91 86 83 78 75
86 84 101 120 138 155 152 151 143 137 139 143 152 153 163 169 180 178 170 151 22 110 72 47 68 78 99 126 132 127 122 119 118 114 104 97 90 83
111 82 84 83 104 117 136 151 155 158 163 164 175 188 196 192 176 176 166 167 219 178 175 132 128 237 243 219 189 169 159 149 140 137 129 117 110 106
133 117 96 73 91 111 123 128 143 160 171 173 185 203 202 197 181 181 185 192 210 175 176 209 207 248 247 228 212 199 183 172 165 162 164 165 163 155
150 155 136 109 111 126 129 126 133 166 195 194 200 207 203 193 192 188 179 169 168 174 182 214 221 251 264 240 220 206 199 195 192 190 191 198 196 192
132 136 147 148 133 134 135 138 136 272 144 159 178 181 171 170 166 149 155 167 201 203 188 205 213 245 254 250 231 216 211 208 208 208 207 202 195 196
140 165 162 167 160 152 153 160 182 214 163 132 112 112 143 156 166 181 181 183 192 219 188 192 188 195 248 239 235 223 219 216 213 213 212 209 201 202
187 211 223 198 189 186 181 190 203 187 176 168 152 133 130 163 182 191 192 192 200 226 188 183 188 191 223 258 251 225 218 216 212 219 220 217 207 201
199 213 219 202 198 196 199 202 185 166 163 166 172 196 214 221 223 217 212 211 220 232 205 188 198 197 204 232 248 233 222 218 215 223 222 212 209 211
206 208 212 207 205 207 210 199 182 173 173 190 209 221 227 229 220 213 223 230 243 238 202 203 207 201 212 230 239 233 234 224 212 222 221 214 211 206
198 194 202 211 204 214 215 207 196 196 197 211 223 229 224 214 212 213 219 214 232 256 221 213 213 204 216 226 228 237 228 229 218 222 226 223 215 212
159 142 148 171 219 243 235 222 208 198 208 218 216 218 221 227 232 216 209 206 220 242 248 219 213 217 227 220 230 240 236 234 232 216 211 228 228 221
155 188 209 213 219 227 233 234 225 222 222 220 218 217 221 227 232 223 216 219 229 238 241 230 196 202 226 233 222 236 240 242 232 209 207 224 241 229
177 208 220 224 225 226 227 228 230 227 219 218 221 224 223 226 227 230 227 229 236 242 243 229 206 209 237 258 241 209 223 233 218 209 211 218 238 241
211 219 225 226 225 227 228 230 233 228 221 226 231 231 226 225 229 232 230 233 238 242 243 233 219 217 227 243 254 241 212 218 218 221 224 227 244 252
217 227 230 229 229 229 229 226 225 225 226 226 230 230 227 227 233 236 237 236 235 238 243 244 239 227 226 215 239 250 233 212 214 218 212 217 232 235
223 227 229 229 227 228 226 224 227 228 227 227 232 231 230 228 232 235 237 237 236 237 246 252 236 202 206 221 239 253 257 237 223 225 222 215 219 231
225 227 229 228 228 226 226 226 226 229 229 230 231 231 229 229 232 234 236 238 241 243 248 248 231 217 223 229 238 247 252 248 234 230 240 237 235 244